Location: Waco, TX
(31.5480°N, 97.1670°W)
Time: 21:21:25

ISS - Pass Details

Date: 09 March 2018
Orbit: 403 x 406 km, 51.6° (Epoch: 18 March)

Event Time Altitude Azimuth Distance (km) Brightness Sun altitude
Rises 02:16:53 0° 245° (WSW) 2,314 - -54.5°
Reaches altitude 10° 02:19:07 10° 256° (WSW) 1,457 - -54.2°
Maximum altitude 02:22:02 30° 320° (NW) 756 - -53.7°
Drops below altitude 10° 02:24:59 10° 24° (NNE) 1,462 - -53.3°
Sets 02:27:14 0° 36° (NE) 2,324 - -52.9°
